"Pseudo-MPEC" for RLF3031

Created 2021 Jun 17 4:07:27 UT using Find_Orb

Click here for an explanation of pseudo-MPECs

 
 Astrometry: 
     RLF3031 KC2021 06 01E$rD`THTiqW$Astrometryr:U1O7pket%!5S*m(redacted;BmDeW34
     RLF3031 KC2021 06 01B`sj:baKf3eAclickEhere:3o+xD1SY]MFYtD3_ftXWhtr:``Y\_W34
     RLF3031 KC2021 06 01tITYGRD279K3`8LMf*^UXfor0Ip(TUV#dj$hexplanationX(+JAW34

Station data:
(W34) Squirrel Valley Observatory, Columbus  (N35.225393 W82.154700)
   US/North Carolina.  Observer R. L. Flynn. 0.35-m f/1.9 Schmidt-Cassegrain
   + CCD.

Orbital elements:  RLF3031
   Perihelion 2021 Feb 12.912212 +/- 32.3156 TT = 21:53:35 (JD 2459258.412212)
Epoch 2021 Jun  1.0 TT = JDT 2459366.5   Earth MOID: 0.0117   AutoNEOCP
M 108.70275062 +/- 37.060179        (J2000 ecliptic)
n   1.00568947 +/- 0.47029          Peri.  266.47459 +/- 100.85994
a   0.98664316 +/- 0.307583         Node   227.25417 +/- 58.025272
e   0.0689633 +/- 0.29037           Incl.    7.61203 +/- 13.997770
P   0.98/357.96d           H 23.2   G  0.15   U 12.2  SR
q 0.91860093 +/- 0.0841235    Q 1.05468539 +/- 22.7073
From 3 observations 2021 June 1 (18.0 min); mean residual 0".30
Residuals in arcseconds: 
210601 W34  .14-  .36+    210601 W34  .22+  .55-    210601 W34  .07-  .19+    

Ephemerides (geocentric):
Date (UTC) HH   RA              Dec         delta   r     elong  mag " sig PA
---- -- -- --  -------------   -----------  ------ ------ -----  --- ---- ---
2021 06 17 04  15 55 44.768   +57 39 14.41  .08675 1.0286  96.0 20.8  39d  64
2021 06 17 05  15 55 49.534   +57 37 58.72  .08683 1.0286  96.0 20.8  39d  64
2021 06 17 06  15 55 54.289   +57 36 43.11  .08691 1.0287  96.0 20.8  39d  64
2021 06 17 07  15 55 59.032   +57 35 27.61  .08699 1.0287  96.0 20.8  39d  64
2021 06 17 08  15 56 03.763   +57 34 12.19  .08707 1.0288  96.0 20.8  39d  64
2021 06 17 09  15 56 08.484   +57 32 56.87  .08716 1.0288  96.0 20.8  39d  64
2021 06 17 10  15 56 13.193   +57 31 41.64  .08724 1.0288  96.0 20.8  39d  64
2021 06 17 11  15 56 17.891   +57 30 26.50  .08732 1.0289  96.1 20.8  39d  64
2021 06 17 12  15 56 22.577   +57 29 11.45  .08740 1.0289  96.1 20.8  39d  64
2021 06 17 13  15 56 27.253   +57 27 56.50  .08748 1.0289  96.1 20.8  39d  64
2021 06 17 14  15 56 31.918   +57 26 41.63  .08757 1.0290  96.1 20.8  39d  64
2021 06 17 15  15 56 36.571   +57 25 26.86  .08765 1.0290  96.1 20.8  39d  64
2021 06 17 16  15 56 41.214   +57 24 12.18  .08773 1.0290  96.1 20.8  39d  64
2021 06 17 17  15 56 45.846   +57 22 57.59  .08781 1.0291  96.1 20.8  39d  64
2021 06 17 18  15 56 50.467   +57 21 43.09  .08789 1.0291  96.1 20.8  40d  64
2021 06 17 19  15 56 55.078   +57 20 28.67  .08797 1.0292  96.2 20.8  40d  64
2021 06 17 20  15 56 59.677   +57 19 14.35  .08806 1.0292  96.2 20.8  40d  64
2021 06 17 21  15 57 04.267   +57 18 00.12  .08814 1.0292  96.2 20.8  40d  64
2021 06 17 22  15 57 08.845   +57 16 45.98  .08822 1.0293  96.2 20.8  40d  64
2021 06 17 23  15 57 13.413   +57 15 31.92  .08830 1.0293  96.2 20.8  40d  64
2021 06 18 00  15 57 17.970   +57 14 17.96  .08838 1.0293  96.2 20.8  40d  64
2021 06 18 01  15 57 22.517   +57 13 04.08  .08846 1.0294  96.2 20.8  40d  64
2021 06 18 02  15 57 27.054   +57 11 50.29  .08854 1.0294  96.2 20.8  40d  64
2021 06 18 03  15 57 31.581   +57 10 36.58  .08863 1.0295  96.3 20.8  40d  64
2021 06 18 04  15 57 36.097   +57 09 22.97  .08871 1.0295  96.3 20.8  40d  64
2021 06 18 05  15 57 40.603   +57 08 09.44  .08879 1.0295  96.3 20.8  40d  64
2021 06 18 06  15 57 45.098   +57 06 56.00  .08887 1.0296  96.3 20.8  40d  64
2021 06 18 07  15 57 49.584   +57 05 42.64  .08895 1.0296  96.3 20.8  40d  64
2021 06 18 08  15 57 54.059   +57 04 29.37  .08903 1.0296  96.3 20.8  40d  64
2021 06 18 09  15 57 58.525   +57 03 16.19  .08911 1.0297  96.3 20.8  40d  64
2021 06 18 10  15 58 02.980   +57 02 03.09  .08920 1.0297  96.3 20.8  40d  64
2021 06 18 11  15 58 07.426   +57 00 50.08  .08928 1.0298  96.3 20.8  40d  64
2021 06 18 12  15 58 11.862   +56 59 37.15  .08936 1.0298  96.4 20.8  40d  64
2021 06 18 13  15 58 16.288   +56 58 24.31  .08944 1.0298  96.4 20.8  40d  64
2021 06 18 14  15 58 20.704   +56 57 11.55  .08952 1.0299  96.4 20.8  40d  64
2021 06 18 15  15 58 25.110   +56 55 58.88  .08960 1.0299  96.4 20.8  40d  64
2021 06 18 16  15 58 29.507   +56 54 46.29  .08968 1.0299  96.4 20.8  40d  64
2021 06 18 17  15 58 33.894   +56 53 33.78  .08976 1.0300  96.4 20.8  40d  64
2021 06 18 18  15 58 38.272   +56 52 21.36  .08984 1.0300  96.4 20.8  40d  64
2021 06 18 19  15 58 42.639   +56 51 09.02  .08993 1.0300  96.4 20.8  40d  64
2021 06 18 20  15 58 46.998   +56 49 56.77  .09001 1.0301  96.5 20.8  40d  64
2021 06 18 21  15 58 51.347   +56 48 44.59  .09009 1.0301  96.5 20.8  40d  64
2021 06 18 22  15 58 55.687   +56 47 32.50  .09017 1.0302  96.5 20.8  40d  64
2021 06 18 23  15 59 00.017   +56 46 20.49  .09025 1.0302  96.5 20.8  40d  64
2021 06 19 00  15 59 04.338   +56 45 08.57  .09033 1.0302  96.5 20.8  40d  64
2021 06 19 01  15 59 08.649   +56 43 56.72  .09041 1.0303  96.5 20.8  40d  64
2021 06 19 02  15 59 12.952   +56 42 44.96  .09049 1.0303  96.5 20.8  40d  64
2021 06 19 03  15 59 17.245   +56 41 33.27  .09057 1.0303  96.5 20.8  40d  64